CW2340 Weather Reports


Display with metric or nautical units.
time (UTC)temp
F
wind
direction
speed
MPH
gust
MPH
rain 1hr
in
rain 24hr
in
rain mn
in
humidity
%
barometer
mb
20260504185004 71 213 6.0 14.0 0.00 0.00 0.00 32 991.5
20260504184504 71 215 3.0 12.0 0.00 0.00 0.00 34 991.5
20260504183504 71 293 4.0 16.0 0.00 0.00 0.00 33 991.5
20260504183004 71 321 3.0 10.0 0.00 0.00 0.00 34 991.6
20260504182504 70 195 3.0 14.0 0.00 0.00 0.00 33 991.7
20260504182004 70 317 3.0 12.0 0.00 0.00 0.00 35 991.9
20260504181504 70 136 2.0 10.0 0.00 0.00 0.00 36 991.9
20260504181004 69 248 3.0 16.0 0.00 0.00 0.00 35 992.0
20260504180504 69 185 4.0 10.0 0.00 0.00 0.00 34 991.9
20260504180004 70 263 3.0 8.0 0.00 0.00 0.00 34 991.9
20260504175504 69 201 3.0 15.0 0.00 0.00 0.00 34 992.1
20260504175004 69 132 3.0 12.0 0.00 0.00 0.00 36 992.1
20260504174504 69 234 5.0 15.0 0.00 0.00 0.00 33 992.3
20260504174004 69 239 4.0 12.0 0.00 0.00 0.00 34 992.1
20260504173504 68 234 3.0 14.0 0.00 0.00 0.00 33 992.2
20260504173003 69 208 4.0 14.0 0.00 0.00 0.00 34 992.4
20260504171504 68 258 5.0 10.0 0.00 0.00 0.00 32 992.6
20260504171004 68 228 5.0 14.0 0.00 0.00 0.00 33 992.5
20260504170504 69 286 4.0 9.0 0.00 0.00 0.00 31 992.5
20260504141004 62 105 3.0 10.0 0.00 0.00 0.00 40 994.3
20260504130504 58 248 2.0 10.0 0.00 0.00 0.00 46 994.8
20260504110504 47 243 0.0 2.0 0.00 0.00 0.00 59 995.0
20260504100504 43 201 0.0 2.0 0.00 0.00 0.00 64 994.5
20260504082004 45 238 1.0 6.0 0.00 0.00 0.00 59 993.9
20260504081504 45 290 0.0 2.0 0.00 0.00 0.00 60 993.9
20260504081004 44 220 0.0 2.0 0.00 0.00 0.00 62 993.9
20260504080504 44 214 0.0 1.0 0.00 0.00 0.00 62 993.8
20260504050504 35 320 0.0 0.0 0.00 0.00 0.00 86 994.0
20260504050004 34 320 0.0 0.0 0.00 0.00 0.00 87 994.3
20260504045004 34 320 0.0 0.0 0.00 0.00 0.00 86 994.2
20260504044504 34 320 0.0 0.0 0.00 0.00 0.00 86 994.2
20260504044003 34 320 0.0 0.0 0.00 0.00 0.00 86 994.3
20260504043504 34 320 0.0 0.0 0.00 0.00 0.00 85 994.1
20260504043004 35 320 0.0 0.0 0.00 0.00 0.00 85 994.2
20260504042504 35 320 0.0 0.0 0.00 0.00 0.00 84 994.4
20260504042004 35 320 0.0 0.0 0.00 0.00 0.00 84 994.3
20260504041004 35 320 0.0 0.0 0.00 0.00 0.00 84 994.1
20260504040504 35 320 0.0 0.0 0.00 0.00 0.00 83 994.2
20260504040004 35 320 0.0 0.0 0.00 0.00 0.00 84 994.1
20260504035504 35 320 0.0 0.0 0.00 0.00 0.00 84 994.1
20260504035004 35 320 0.0 0.0 0.00 0.00 0.00 84 994.0
20260504034504 35 320 0.0 0.0 0.00 0.00 0.00 84 993.9
20260504034004 36 320 0.0 0.0 0.00 0.00 0.00 84 993.9
20260504033504 35 320 0.0 0.0 0.00 0.00 0.00 84 994.0
20260504033004 35 320 0.0 0.0 0.00 0.00 0.00 82 993.9
20260504032504 36 320 0.0 0.0 0.00 0.00 0.00 82 994.0
20260504032004 36 320 0.0 0.0 0.00 0.00 0.00 81 993.9
20260504031504 37 320 0.0 0.0 0.00 0.00 0.00 81 993.9
20260504031004 37 320 0.0 0.0 0.00 0.00 0.00 81 994.0
20260504030504 37 320 0.0 0.0 0.00 0.00 0.00 81 993.9
20260504030004 37 320 0.0 0.0 0.00 0.00 0.00 81 994.0
20260504025504 37 320 0.0 0.0 0.00 0.00 0.00 81 994.0
20260504025005 37 320 0.0 0.0 0.00 0.00 0.00 80 993.9
20260504024504 36 320 0.0 0.0 0.00 0.00 0.00 80 993.7
20260504024004 36 320 0.0 0.0 0.00 0.00 0.00 79 993.7
20260504023503 37 320 0.0 0.0 0.00 0.00 0.00 78 993.8
20260504022004 38 320 0.0 0.0 0.00 0.00 0.00 76 993.8
20260504021504 38 320 0.0 0.0 0.00 0.00 0.00 76 993.7
20260504021004 38 320 0.0 0.0 0.00 0.00 0.00 75 993.8
20260504020504 37 320 0.0 0.0 0.00 0.00 0.00 75 993.7
20260504020004 37 320 0.0 0.0 0.00 0.00 0.00 75 993.6
20260504015504 38 320 0.0 0.0 0.00 0.00 0.00 74 993.6
20260504015005 38 320 0.0 0.0 0.00 0.00 0.00 73 993.8
20260504014504 38 320 0.0 0.0 0.00 0.00 0.00 74 993.5
20260504013504 39 320 0.0 0.0 0.00 0.00 0.00 73 993.4
20260504011503 40 320 0.0 0.0 0.00 0.00 0.00 67 993.3
20260504011004 40 320 0.0 0.0 0.00 0.00 0.00 66 993.3
20260504010504 40 320 0.0 0.0 0.00 0.00 0.00 65 993.4
20260504010004 40 320 0.0 0.0 0.00 0.00 0.00 64 993.1
20260504005504 40 320 0.0 0.0 0.00 0.00 0.00 62 992.9
20260504005004 41 320 0.0 0.0 0.00 0.00 0.00 61 992.7
20260504004504 40 320 0.0 0.0 0.00 0.00 0.00 61 992.8
20260504004004 40 320 0.0 0.0 0.00 0.00 0.00 62 992.8
20260504003004 41 320 0.0 0.0 0.00 0.00 0.00 60 992.5
20260504002504 41 320 0.0 0.0 0.00 0.00 0.00 59 992.5
20260504002004 42 320 0.0 0.0 0.00 0.00 0.00 58 992.4
20260504001504 43 320 0.0 0.0 0.00 0.00 0.00 57 992.3
20260504001004 44 320 0.0 0.0 0.00 0.00 0.00 54 992.2
20260504000504 45 320 0.0 0.0 0.00 0.00 0.00 51 992.1
20260504000004 46 320 0.0 0.0 0.00 0.00 0.00 49 992.3
20260503235504 47 320 0.0 0.0 0.00 0.00 0.00 48 992.1
20260503235004 48 320 0.0 0.0 0.00 0.00 0.00 46 992.1
20260503234504 48 357 0.0 0.0 0.00 0.00 0.00 43 992.2
20260503234004 49 2 0.0 0.0 0.00 0.00 0.00 42 991.9
20260503233504 49 2 1.0 2.0 0.00 0.00 0.00 42 992.0
20260503233004 49 260 1.0 2.0 0.00 0.00 0.00 42 992.0
20260503232004 50 180 1.0 3.0 0.00 0.00 0.00 41 991.9
20260503231004 50 70 0.0 1.0 0.00 0.00 0.00 42 992.0
20260503230503 51 213 1.0 2.0 0.00 0.00 0.00 41 991.9
20260503225004 51 25 1.0 10.0 0.00 0.00 0.00 40 991.9
20260503224503 51 316 1.0 3.0 0.00 0.00 0.00 40 991.8
20260503224004 51 256 1.0 3.0 0.00 0.00 0.00 40 991.6
20260503223504 52 19 1.0 2.0 0.00 0.00 0.00 40 991.6
20260503223004 52 48 1.0 2.0 0.00 0.00 0.00 39 991.6
20260503222504 52 99 0.0 3.0 0.00 0.00 0.00 40 991.7
20260503222004 53 338 1.0 5.0 0.00 0.00 0.00 39 991.5
20260503221504 52 23 1.0 7.0 0.00 0.00 0.00 40 991.7
20260503221004 53 330 2.0 5.0 0.00 0.00 0.00 39 991.7
20260503220504 52 268 2.0 3.0 0.00 0.00 0.00 40 991.7
20260503220004 52 19 2.0 5.0 0.00 0.00 0.00 41 991.7
20260503215504 52 352 2.0 6.0 0.00 0.00 0.00 40 991.8
20260503215004 52 29 2.0 6.0 0.00 0.00 0.00 40 991.7
20260503214504 53 0 2.0 9.0 0.00 0.00 0.00 41 991.7
20260503214004 53 349 2.0 6.0 0.00 0.00 0.00 40 991.6
20260503213504 53 290 1.0 7.0 0.00 0.00 0.00 41 991.7
20260503213004 53 347 3.0 7.0 0.00 0.00 0.00 39 991.4
20260503212504 54 338 2.0 10.0 0.00 0.00 0.00 39 991.5
20260503212004 54 349 1.0 5.0 0.00 0.00 0.00 39 991.6
20260503211504 53 313 1.0 7.0 0.00 0.00 0.00 38 991.6
20260503211004 54 44 2.0 8.0 0.00 0.00 0.00 39 991.5
20260503210503 53 329 2.0 6.0 0.00 0.00 0.00 39 991.4
20260503210005 53 329 2.0 9.0 0.00 0.00 0.00 40 991.3
20260503205004 51 23 2.0 10.0 0.00 0.00 0.00 43 991.4
20260503204504 51 0 3.0 9.0 0.00 0.00 0.00 40 991.3
20260503204004 52 357 2.0 9.0 0.00 0.00 0.00 41 991.0
20260503203504 52 330 2.0 6.0 0.00 0.00 0.00 41 991.1
20260503203004 53 355 2.0 5.0 0.00 0.00 0.00 40 991.3
20260503202504 52 38 1.0 9.0 0.00 0.00 0.00 40 991.2
20260503201504 51 330 1.0 8.0 0.00 0.00 0.00 42 991.2
20260503201003 52 6 2.0 10.0 0.00 0.00 0.00 40 991.1
20260503200002 52 7 3.0 6.0 0.00 0.00 0.00 40 991.1
20260503194935 52 336 3.0 8.0 0.00 0.00 0.00 40 991.1
20260503194503 52 332 3.0 7.0 0.00 0.00 0.00 39 990.9
20260503193504 52 351 2.0 7.0 0.00 0.00 0.00 41 991.1
20260503193003 52 336 2.0 12.0 0.00 0.00 0.00 41 990.9
20260503192503 53 338 2.0 7.0 0.00 0.00 0.00 39 990.8
20260503192004 53 333 2.0 7.0 0.00 0.00 0.00 41 991.1
20260503191504 53 351 2.0 10.0 0.00 0.00 0.00 42 991.0
20260503191004 52 288 1.0 5.0 0.00 0.00 0.00 41 991.1
20260503190004 52 16 2.0 7.0 0.00 0.00 0.00 40 991.0